| time (UTC) | temp F | wind direction | speed MPH | gust MPH | rain 1hr in | rain 24hr in | rain mn in | humidity % | barometer mb |
| 20260906192004 | 80 | 143 | 3.0 | 6.0 | 0.00 | 0.00 | 0.00 | 70 | 1013.4 |
| 20260906191505 | 80 | 250 | 1.0 | 7.0 | 0.00 | 0.00 | 0.00 | 71 | 1013.5 |
| 20260906191004 | 79 | 250 | 1.0 | 7.0 | 0.00 | 0.00 | 0.00 | 71 | 1013.6 |
| 20260906190504 | 79 | 226 | 5.0 | 8.0 | 0.00 | 0.00 | 0.00 | 72 | 1013.5 |
| 20260906185503 | 79 | 256 | 5.0 | 9.0 | 0.00 | 0.00 | 0.00 | 73 | 1013.2 |
| 20260906185004 | 78 | 248 | 5.0 | 9.0 | 0.00 | 0.00 | 0.00 | 75 | 1013.3 |
| 20260906184504 | 78 | 262 | 6.0 | 9.0 | 0.00 | 0.00 | 0.00 | 76 | 1013.3 |
| 20260906183504 | 78 | 269 | 7.0 | 12.0 | 0.00 | 0.00 | 0.00 | 76 | 1013.4 |
| 20260906183004 | 78 | 263 | 7.0 | 12.0 | 0.00 | 0.00 | 0.00 | 77 | 1013.4 |
| 20260906182504 | 78 | 257 | 7.0 | 10.0 | 0.00 | 0.00 | 0.00 | 79 | 1013.3 |
| 20260906182005 | 78 | 242 | 6.0 | 9.0 | 0.00 | 0.00 | 0.00 | 81 | 1013.2 |
| 20260906181503 | 78 | 250 | 6.0 | 10.0 | 0.00 | 0.00 | 0.00 | 84 | 1013.3 |
| 20260906181004 | 78 | 245 | 6.0 | 10.0 | 0.00 | 0.00 | 0.00 | 84 | 1013.4 |
| 20260906180504 | 78 | 251 | 6.0 | 12.0 | 0.00 | 0.00 | 0.00 | 85 | 1013.4 |
| 20260906175504 | 78 | 262 | 6.0 | 12.0 | 0.00 | 0.00 | 0.00 | 87 | 1013.5 |
| 20260906175004 | 78 | 262 | 6.0 | 15.0 | 0.00 | 0.00 | 0.00 | 87 | 1013.6 |
| 20260906174503 | 78 | 238 | 10.0 | 18.0 | 0.00 | 0.00 | 0.00 | 86 | 1013.9 |
| 20260906174005 | 78 | 241 | 11.0 | 18.0 | 0.00 | 0.00 | 0.00 | 86 | 1014.1 |
| 20260906173504 | 78 | 244 | 10.0 | 14.0 | 0.00 | 0.00 | 0.00 | 86 | 1014.3 |
| 20260906173004 | 79 | 249 | 10.0 | 14.0 | 0.00 | 0.00 | 0.00 | 87 | 1014.4 |
| 20260906172504 | 79 | 241 | 8.0 | 12.0 | 0.00 | 0.00 | 0.00 | 86 | 1014.5 |
| 20260906172005 | 79 | 228 | 7.0 | 10.0 | 0.00 | 0.00 | 0.00 | 86 | 1014.3 |
| 20260906171004 | 79 | 193 | 4.0 | 6.0 | 0.00 | 0.00 | 0.00 | 85 | 1013.9 |
| 20260906170005 | 79 | 190 | 5.0 | 7.0 | 0.00 | 0.00 | 0.00 | 84 | 1013.8 |
| 20260906165503 | 79 | 176 | 3.0 | 8.0 | 0.00 | 0.00 | 0.00 | 84 | 1013.7 |
| 20260906164504 | 79 | 233 | 7.0 | 8.0 | 0.00 | 0.00 | 0.00 | 83 | 1013.8 |
| 20260906164005 | 79 | 230 | 6.0 | 8.0 | 0.00 | 0.00 | 0.00 | 84 | 1013.8 |
| 20260906163503 | 79 | 216 | 6.0 | 10.0 | 0.00 | 0.00 | 0.00 | 86 | 1013.6 |
| 20260906163003 | 79 | 195 | 7.0 | 10.0 | 0.00 | 0.00 | 0.00 | 86 | 1013.6 |
| 20260906162504 | 79 | 220 | 7.0 | 9.0 | 0.00 | 0.00 | 0.00 | 86 | 1013.5 |
| 20260906161505 | 78 | 239 | 5.0 | 9.0 | 0.00 | 0.00 | 0.00 | 85 | 1013.2 |
| 20260906161004 | 78 | 262 | 6.0 | 9.0 | 0.00 | 0.00 | 0.00 | 85 | 1013.1 |
| 20260906160504 | 78 | 255 | 5.0 | 7.0 | 0.00 | 0.00 | 0.00 | 86 | 1013.2 |
| 20260906160004 | 78 | 264 | 5.0 | 7.0 | 0.00 | 0.00 | 0.00 | 88 | 1013.3 |
| 20260906155503 | 78 | 278 | 3.0 | 7.0 | 0.00 | 0.00 | 0.00 | 89 | 1013.3 |
| 20260906155005 | 78 | 208 | 5.0 | 7.0 | 0.00 | 0.00 | 0.00 | 91 | 1013.4 |
| 20260906154504 | 78 | 107 | 3.0 | 3.0 | 0.00 | 0.00 | 0.00 | 91 | 1013.4 |
| 20260906154003 | 78 | 107 | 1.0 | 2.0 | 0.00 | 0.00 | 0.00 | 91 | 1013.1 |
| 20260906153504 | 78 | 107 | 1.0 | 2.0 | 0.00 | 0.00 | 0.00 | 91 | 1013.1 |
| 20260906153004 | 78 | 107 | 1.0 | 2.0 | 0.00 | 0.00 | 0.00 | 91 | 1013.1 |
| 20260906152505 | 78 | 107 | 1.0 | 3.0 | 0.00 | 0.00 | 0.00 | 91 | 1013.0 |
| 20260906150507 | 77 | 107 | 0.0 | 7.0 | 0.00 | 0.00 | 0.00 | 91 | 1012.9 |
| 20260906150004 | 77 | 107 | 2.0 | 7.0 | 0.00 | 0.00 | 0.00 | 91 | 1012.7 |
| 20260906145503 | 77 | 121 | 4.0 | 7.0 | 0.00 | 0.00 | 0.00 | 91 | 1012.5 |
| 20260906144504 | 77 | 132 | 5.0 | 9.0 | 0.00 | 0.00 | 0.00 | 91 | 1012.7 |
| 20260906144003 | 77 | 128 | 6.0 | 10.0 | 0.00 | 0.00 | 0.00 | 91 | 1012.6 |
| 20260906143503 | 77 | 137 | 7.0 | 10.0 | 0.00 | 0.00 | 0.00 | 92 | 1012.6 |
| 20260906143006 | 77 | 130 | 5.0 | 10.0 | 0.00 | 0.00 | 0.00 | 92 | 1012.6 |
| 20260906142504 | 77 | 137 | 6.0 | 10.0 | 0.00 | 0.00 | 0.00 | 92 | 1012.7 |
| 20260906142003 | 77 | 132 | 5.0 | 9.0 | 0.00 | 0.00 | 0.00 | 92 | 1012.7 |
| 20260906141503 | 77 | 141 | 5.0 | 13.0 | 0.00 | 0.00 | 0.00 | 92 | 1012.7 |
| 20260906141005 | 77 | 131 | 8.0 | 13.0 | 0.00 | 0.00 | 0.00 | 92 | 1012.6 |
| 20260906140504 | 77 | 138 | 9.0 | 13.0 | 0.00 | 0.00 | 0.00 | 92 | 1012.4 |
| 20260906134004 | 77 | 138 | 9.0 | 15.0 | 0.00 | 0.00 | 0.00 | 93 | 1011.9 |
| 20260906133506 | 77 | 132 | 10.0 | 16.0 | 0.00 | 0.00 | 0.00 | 93 | 1012.0 |
| 20260906132504 | 77 | 135 | 11.0 | 15.0 | 0.00 | 0.00 | 0.00 | 93 | 1012.1 |
| 20260906132004 | 77 | 128 | 9.0 | 12.0 | 0.00 | 0.00 | 0.00 | 93 | 1012.0 |
| 20260906131505 | 76 | 133 | 9.0 | 12.0 | 0.00 | 0.00 | 0.00 | 93 | 1012.0 |
| 20260906131004 | 76 | 127 | 7.0 | 13.0 | 0.00 | 0.00 | 0.00 | 93 | 1011.8 |
| 20260906130503 | 76 | 135 | 9.0 | 13.0 | 0.00 | 0.00 | 0.00 | 93 | 1011.8 |
| 20260906130004 | 76 | 120 | 9.0 | 12.0 | 0.00 | 0.00 | 0.00 | 94 | 1011.5 |
| 20260906125505 | 76 | 116 | 9.0 | 13.0 | 0.00 | 0.00 | 0.00 | 94 | 1011.5 |
| 20260906125004 | 76 | 118 | 9.0 | 13.0 | 0.00 | 0.00 | 0.00 | 93 | 1011.4 |
| 20260906124504 | 76 | 116 | 8.0 | 13.0 | 0.00 | 0.00 | 0.00 | 93 | 1011.4 |
| 20260906124004 | 76 | 113 | 10.0 | 13.0 | 0.00 | 0.00 | 0.00 | 93 | 1011.3 |
| 20260906123505 | 76 | 111 | 7.0 | 12.0 | 0.00 | 0.00 | 0.00 | 93 | 1011.3 |
| 20260906123004 | 76 | 100 | 9.0 | 12.0 | 0.00 | 0.00 | 0.00 | 93 | 1011.1 |
| 20260906122504 | 76 | 108 | 8.0 | 12.0 | 0.00 | 0.00 | 0.00 | 93 | 1011.1 |
| 20260906122003 | 76 | 112 | 10.0 | 12.0 | 0.00 | 0.00 | 0.00 | 93 | 1011.0 |
| 20260906121506 | 76 | 112 | 9.0 | 12.0 | 0.00 | 0.00 | 0.00 | 93 | 1011.1 |
| 20260906120504 | 76 | 113 | 9.0 | 12.0 | 0.00 | 0.00 | 0.00 | 93 | 1011.2 |
| 20260906120004 | 76 | 114 | 8.0 | 12.0 | 0.00 | 0.00 | 0.00 | 93 | 1011.1 |
| 20260906115505 | 76 | 113 | 8.0 | 12.0 | 0.00 | 0.00 | 0.00 | 93 | 1010.9 |
| 20260906114004 | 76 | 120 | 7.0 | 12.0 | 0.00 | 0.02 | 0.00 | 93 | 1010.8 |
| 20260906113003 | 76 | 116 | 7.0 | 12.0 | 0.00 | 0.03 | 0.00 | 93 | 1010.7 |
| 20260906112506 | 76 | 122 | 7.0 | 12.0 | 0.00 | 0.04 | 0.00 | 93 | 1010.7 |
| 20260906112004 | 76 | 119 | 8.0 | 12.0 | 0.00 | 0.04 | 0.00 | 93 | 1010.6 |
| 20260906111503 | 76 | 122 | 7.0 | 12.0 | 0.00 | 0.05 | 0.00 | 93 | 1010.6 |
| 20260906110505 | 76 | 117 | 7.0 | 12.0 | 0.00 | 0.05 | 0.00 | 93 | 1010.6 |
| 20260906105504 | 77 | 125 | 7.0 | 12.0 | 0.00 | 0.05 | 0.00 | 92 | 1010.6 |
| 20260906105004 | 77 | 125 | 7.0 | 12.0 | 0.00 | 0.06 | 0.00 | 92 | 1010.6 |
| 20260906104504 | 77 | 124 | 7.0 | 12.0 | 0.00 | 0.07 | 0.00 | 92 | 1010.7 |
| 20260906104006 | 77 | 130 | 7.0 | 12.0 | 0.00 | 0.07 | 0.00 | 92 | 1010.8 |
| 20260906103504 | 77 | 123 | 7.0 | 12.0 | 0.00 | 0.08 | 0.00 | 92 | 1010.7 |
| 20260906103004 | 77 | 127 | 9.0 | 12.0 | 0.00 | 0.08 | 0.00 | 92 | 1010.7 |
| 20260906102005 | 77 | 136 | 9.0 | 13.0 | 0.00 | 0.09 | 0.00 | 92 | 1010.6 |
| 20260906101504 | 77 | 135 | 9.0 | 13.0 | 0.00 | 0.09 | 0.00 | 92 | 1010.6 |
| 20260906101004 | 77 | 139 | 9.0 | 16.0 | 0.00 | 0.09 | 0.00 | 92 | 1010.5 |
| 20260906100504 | 77 | 135 | 10.0 | 16.0 | 0.00 | 0.09 | 0.00 | 92 | 1010.4 |
| 20260906100005 | 77 | 136 | 10.0 | 15.0 | 0.00 | 0.09 | 0.00 | 92 | 1010.4 |
| 20260906095504 | 77 | 136 | 10.0 | 14.0 | 0.00 | 0.09 | 0.00 | 92 | 1010.4 |
| 20260906095004 | 77 | 133 | 9.0 | 14.0 | 0.00 | 0.09 | 0.00 | 92 | 1010.4 |
| 20260906094504 | 77 | 129 | 9.0 | 13.0 | 0.00 | 0.09 | 0.00 | 92 | 1010.4 |
| 20260906094006 | 77 | 128 | 9.0 | 13.0 | 0.00 | 0.09 | 0.00 | 92 | 1010.4 |
| 20260906093004 | 77 | 137 | 9.0 | 14.0 | 0.00 | 0.10 | 0.00 | 92 | 1010.5 |
| 20260906092503 | 77 | 136 | 9.0 | 14.0 | 0.00 | 0.10 | 0.00 | 92 | 1010.6 |
| 20260906092005 | 77 | 133 | 9.0 | 15.0 | 0.00 | 0.10 | 0.00 | 92 | 1010.7 |
| 20260906091503 | 77 | 136 | 10.0 | 15.0 | 0.00 | 0.10 | 0.00 | 92 | 1010.8 |
| 20260906091003 | 77 | 142 | 10.0 | 15.0 | 0.00 | 0.10 | 0.00 | 92 | 1010.8 |
| 20260906090503 | 77 | 141 | 9.0 | 15.0 | 0.00 | 0.10 | 0.00 | 92 | 1010.9 |
| 20260906090005 | 77 | 143 | 8.0 | 15.0 | 0.00 | 0.10 | 0.00 | 92 | 1010.9 |
| 20260906085504 | 77 | 143 | 10.0 | 15.0 | 0.00 | 0.11 | 0.00 | 92 | 1010.9 |
| 20260906085004 | 77 | 145 | 9.0 | 14.0 | 0.00 | 0.11 | 0.00 | 92 | 1011.0 |
| 20260906084503 | 77 | 147 | 9.0 | 14.0 | 0.00 | 0.11 | 0.00 | 92 | 1011.1 |
| 20260906084006 | 77 | 147 | 9.0 | 14.0 | 0.00 | 0.11 | 0.00 | 92 | 1011.0 |
| 20260906083504 | 77 | 155 | 9.0 | 14.0 | 0.00 | 0.11 | 0.00 | 92 | 1011.1 |
| 20260906083003 | 77 | 149 | 9.0 | 14.0 | 0.00 | 0.11 | 0.00 | 92 | 1011.1 |
| 20260906081503 | 77 | 150 | 8.0 | 13.0 | 0.00 | 0.13 | 0.00 | 92 | 1011.0 |
| 20260906081005 | 77 | 147 | 9.0 | 13.0 | 0.00 | 0.13 | 0.00 | 92 | 1010.9 |
| 20260906080504 | 77 | 139 | 9.0 | 15.0 | 0.00 | 0.14 | 0.00 | 92 | 1010.8 |
| 20260906080005 | 77 | 136 | 9.0 | 15.0 | 0.00 | 0.14 | 0.00 | 91 | 1010.7 |
| 20260906075004 | 77 | 134 | 10.0 | 16.0 | 0.00 | 0.14 | 0.00 | 91 | 1010.6 |
| 20260906074004 | 77 | 133 | 10.0 | 17.0 | 0.00 | 0.14 | 0.00 | 91 | 1010.7 |
| 20260906073504 | 77 | 140 | 12.0 | 17.0 | 0.00 | 0.14 | 0.00 | 91 | 1010.7 |
| 20260906073003 | 77 | 141 | 12.0 | 16.0 | 0.00 | 0.14 | 0.00 | 91 | 1010.8 |
| 20260906072504 | 77 | 142 | 12.0 | 16.0 | 0.00 | 0.14 | 0.00 | 91 | 1010.8 |
| 20260906072004 | 77 | 141 | 10.0 | 16.0 | 0.00 | 0.14 | 0.00 | 90 | 1010.8 |
| 20260906071504 | 77 | 140 | 12.0 | 16.0 | 0.00 | 0.14 | 0.00 | 90 | 1010.8 |
| 20260906070503 | 77 | 141 | 10.0 | 17.0 | 0.00 | 0.14 | 0.00 | 90 | 1011.1 |
| 20260906065003 | 77 | 136 | 10.0 | 16.0 | 0.00 | 0.14 | 0.00 | 89 | 1011.1 |
| 20260906064505 | 77 | 136 | 10.0 | 15.0 | 0.00 | 0.14 | 0.00 | 89 | 1011.2 |
| 20260906064004 | 77 | 132 | 10.0 | 15.0 | 0.00 | 0.14 | 0.00 | 89 | 1011.1 |
| 20260906063504 | 77 | 126 | 10.0 | 15.0 | 0.00 | 0.14 | 0.00 | 89 | 1011.0 |
| 20260906063006 | 76 | 130 | 8.0 | 12.0 | 0.00 | 0.14 | 0.00 | 89 | 1011.0 |
| 20260906062503 | 76 | 129 | 9.0 | 14.0 | 0.00 | 0.14 | 0.00 | 89 | 1011.1 |
| 20260906062004 | 76 | 126 | 8.0 | 14.0 | 0.00 | 0.14 | 0.00 | 89 | 1011.1 |
| 20260906061505 | 76 | 129 | 9.0 | 13.0 | 0.00 | 0.14 | 0.00 | 89 | 1011.0 |
| 20260906061003 | 76 | 129 | 9.0 | 12.0 | 0.00 | 0.14 | 0.00 | 88 | 1011.0 |
| 20260906060504 | 76 | 125 | 7.0 | 12.0 | 0.00 | 0.14 | 0.00 | 88 | 1011.2 |
| 20260906060005 | 76 | 117 | 7.0 | 12.0 | 0.00 | 0.14 | 0.00 | 88 | 1011.2 |
| 20260906055503 | 76 | 117 | 8.0 | 12.0 | 0.00 | 0.14 | 0.00 | 88 | 1011.1 |
| 20260906055004 | 76 | 114 | 8.0 | 12.0 | 0.00 | 0.14 | 0.00 | 88 | 1011.1 |
| 20260906054504 | 76 | 118 | 9.0 | 12.0 | 0.00 | 0.14 | 0.00 | 87 | 1011.1 |
| 20260906054004 | 76 | 121 | 9.0 | 12.0 | 0.00 | 0.14 | 0.00 | 87 | 1011.1 |
| 20260906053504 | 76 | 117 | 8.0 | 12.0 | 0.00 | 0.14 | 0.00 | 87 | 1011.2 |
| 20260906053004 | 76 | 118 | 9.0 | 12.0 | 0.00 | 0.14 | 0.00 | 87 | 1011.3 |
| 20260906052504 | 76 | 114 | 8.0 | 12.0 | 0.00 | 0.14 | 0.00 | 86 | 1011.3 |
| 20260906052004 | 76 | 114 | 9.0 | 12.0 | 0.00 | 0.14 | 0.00 | 86 | 1011.2 |
| 20260906051004 | 76 | 106 | 9.0 | 12.0 | 0.00 | 0.14 | 0.00 | 86 | 1011.3 |
| 20260906050504 | 76 | 108 | 9.0 | 12.0 | 0.00 | 0.14 | 0.00 | 85 | 1011.4 |
| 20260906050004 | 76 | 108 | 7.0 | 12.0 | 0.00 | 0.14 | 0.00 | 85 | 1011.6 |
| 20260906045004 | 76 | 114 | 9.0 | 12.0 | 0.00 | 0.14 | 0.14 | 84 | 1011.3 |
| 20260906044503 | 76 | 116 | 9.0 | 12.0 | 0.00 | 0.14 | 0.14 | 84 | 1011.3 |
| 20260906044004 | 76 | 118 | 8.0 | 12.0 | 0.00 | 0.14 | 0.14 | 84 | 1011.3 |
| 20260906043003 | 77 | 123 | 7.0 | 14.0 | 0.00 | 0.14 | 0.14 | 83 | 1011.3 |
| 20260906042504 | 77 | 125 | 7.0 | 15.0 | 0.00 | 0.14 | 0.14 | 82 | 1011.3 |
| 20260906042005 | 77 | 123 | 10.0 | 15.0 | 0.00 | 0.14 | 0.14 | 82 | 1011.3 |
| 20260906041504 | 77 | 130 | 9.0 | 15.0 | 0.00 | 0.14 | 0.14 | 82 | 1011.4 |
| 20260906041005 | 77 | 126 | 9.0 | 14.0 | 0.00 | 0.14 | 0.14 | 82 | 1011.4 |
| 20260906040504 | 77 | 125 | 9.0 | 14.0 | 0.00 | 0.14 | 0.14 | 81 | 1011.4 |
| 20260906040005 | 77 | 134 | 9.0 | 14.0 | 0.00 | 0.14 | 0.14 | 81 | 1011.4 |
| 20260906035504 | 77 | 132 | 10.0 | 14.0 | 0.00 | 0.14 | 0.14 | 81 | 1011.3 |
| 20260906035005 | 77 | 131 | 10.0 | 15.0 | 0.00 | 0.14 | 0.14 | 81 | 1011.4 |
| 20260906034503 | 77 | 131 | 11.0 | 15.0 | 0.00 | 0.14 | 0.14 | 81 | 1011.4 |
| 20260906034004 | 77 | 138 | 12.0 | 15.0 | 0.00 | 0.14 | 0.14 | 81 | 1011.4 |
| 20260906033503 | 77 | 137 | 10.0 | 15.0 | 0.00 | 0.14 | 0.14 | 81 | 1011.4 |
| 20260906033004 | 77 | 132 | 10.0 | 14.0 | 0.00 | 0.14 | 0.14 | 80 | 1011.4 |
| 20260906032004 | 77 | 127 | 10.0 | 13.0 | 0.00 | 0.14 | 0.14 | 79 | 1011.4 |
| 20260906031504 | 77 | 134 | 9.0 | 14.0 | 0.00 | 0.14 | 0.14 | 79 | 1011.4 |
| 20260906031003 | 78 | 128 | 9.0 | 14.0 | 0.00 | 0.14 | 0.14 | 78 | 1011.3 |
| 20260906025503 | 78 | 121 | 8.0 | 13.0 | 0.00 | 0.14 | 0.14 | 76 | 1011.2 |
| 20260906024004 | 79 | 123 | 9.0 | 12.0 | 0.00 | 0.14 | 0.14 | 75 | 1011.2 |
| 20260906023504 | 79 | 115 | 9.0 | 12.0 | 0.00 | 0.14 | 0.14 | 75 | 1011.0 |
| 20260906023004 | 79 | 118 | 9.0 | 13.0 | 0.00 | 0.14 | 0.14 | 74 | 1011.0 |
| 20260906022503 | 79 | 118 | 9.0 | 13.0 | 0.00 | 0.14 | 0.14 | 74 | 1011.0 |
| 20260906022004 | 79 | 126 | 9.0 | 13.0 | 0.00 | 0.14 | 0.14 | 74 | 1011.0 |
| 20260906021004 | 79 | 123 | 8.0 | 12.0 | 0.00 | 0.14 | 0.14 | 73 | 1010.9 |
| 20260906020504 | 79 | 127 | 7.0 | 12.0 | 0.00 | 0.14 | 0.14 | 72 | 1010.8 |
| 20260906020004 | 80 | 125 | 7.0 | 12.0 | 0.00 | 0.14 | 0.14 | 72 | 1010.9 |
| 20260906015505 | 80 | 125 | 7.0 | 14.0 | 0.00 | 0.14 | 0.14 | 71 | 1010.9 |
| 20260906015004 | 80 | 124 | 9.0 | 14.0 | 0.00 | 0.14 | 0.14 | 71 | 1010.8 |
| 20260906014504 | 80 | 120 | 9.0 | 13.0 | 0.00 | 0.14 | 0.14 | 70 | 1010.7 |
| 20260906014004 | 80 | 129 | 9.0 | 14.0 | 0.00 | 0.14 | 0.14 | 69 | 1010.6 |
| 20260906013503 | 81 | 126 | 10.0 | 14.0 | 0.00 | 0.14 | 0.14 | 69 | 1010.6 |
| 20260906013004 | 81 | 122 | 8.0 | 12.0 | 0.00 | 0.14 | 0.14 | 69 | 1010.6 |
| 20260906012504 | 81 | 117 | 9.0 | 12.0 | 0.00 | 0.14 | 0.14 | 68 | 1010.5 |
| 20260906012003 | 81 | 121 | 8.0 | 12.0 | 0.00 | 0.14 | 0.14 | 67 | 1010.4 |
| 20260906011004 | 82 | 123 | 8.0 | 12.0 | 0.00 | 0.14 | 0.14 | 66 | 1010.4 |
| 20260906010505 | 83 | 121 | 8.0 | 12.0 | 0.00 | 0.14 | 0.14 | 65 | 1010.5 |
| 20260906010004 | 83 | 122 | 7.0 | 12.0 | 0.00 | 0.14 | 0.14 | 64 | 1010.5 |
| 20260906005505 | 83 | 121 | 8.0 | 12.0 | 0.00 | 0.14 | 0.14 | 64 | 1010.3 |
| 20260906005004 | 83 | 123 | 7.0 | 13.0 | 0.00 | 0.14 | 0.14 | 64 | 1010.3 |
| 20260906004504 | 84 | 122 | 7.0 | 15.0 | 0.00 | 0.14 | 0.14 | 63 | 1010.2 |
| 20260906004004 | 84 | 128 | 10.0 | 15.0 | 0.00 | 0.14 | 0.14 | 62 | 1010.1 |
| 20260906003004 | 85 | 126 | 9.0 | 16.0 | 0.00 | 0.14 | 0.14 | 61 | 1010.1 |
| 20260906002003 | 85 | 126 | 9.0 | 16.0 | 0.00 | 0.14 | 0.14 | 61 | 1009.9 |
| 20260906001504 | 85 | 131 | 10.0 | 15.0 | 0.00 | 0.14 | 0.14 | 61 | 1009.9 |
| 20260906001005 | 86 | 124 | 9.0 | 16.0 | 0.00 | 0.14 | 0.14 | 61 | 1009.9 |
| 20260906000504 | 86 | 126 | 9.0 | 20.0 | 0.00 | 0.14 | 0.14 | 61 | 1009.7 |
| 20260906000004 | 87 | 136 | 12.0 | 20.0 | 0.00 | 0.14 | 0.14 | 60 | 1009.6 |
| 20260905235504 | 87 | 131 | 10.0 | 20.0 | 0.00 | 0.14 | 0.14 | 60 | 1009.6 |
| 20260905235004 | 88 | 130 | 11.0 | 18.0 | 0.00 | 0.14 | 0.14 | 58 | 1009.6 |
| 20260905234505 | 88 | 129 | 13.0 | 18.0 | 0.00 | 0.14 | 0.14 | 57 | 1009.5 |
| 20260905234003 | 89 | 120 | 10.0 | 17.0 | 0.00 | 0.14 | 0.14 | 57 | 1009.5 |
| 20260905233504 | 89 | 122 | 10.0 | 20.0 | 0.00 | 0.14 | 0.14 | 56 | 1009.6 |
| 20260905233004 | 89 | 125 | 10.0 | 20.0 | 0.00 | 0.14 | 0.14 | 57 | 1009.6 |
| 20260905232503 | 89 | 122 | 10.0 | 16.0 | 0.00 | 0.14 | 0.14 | 57 | 1009.5 |
| 20260905232006 | 90 | 131 | 11.0 | 16.0 | 0.00 | 0.14 | 0.14 | 58 | 1009.6 |
| 20260905231504 | 90 | 121 | 10.0 | 16.0 | 0.00 | 0.14 | 0.14 | 57 | 1009.6 |
| 20260905231005 | 91 | 112 | 9.0 | 16.0 | 0.00 | 0.14 | 0.14 | 56 | 1009.5 |
| 20260905230504 | 91 | 126 | 10.0 | 16.0 | 0.00 | 0.14 | 0.14 | 57 | 1009.5 |
| 20260905230004 | 91 | 113 | 9.0 | 16.0 | 0.00 | 0.14 | 0.14 | 56 | 1009.5 |
| 20260905225506 | 92 | 130 | 12.0 | 16.0 | 0.00 | 0.14 | 0.14 | 55 | 1009.5 |
| 20260905225004 | 92 | 121 | 10.0 | 14.0 | 0.00 | 0.14 | 0.14 | 55 | 1009.5 |
| 20260905224504 | 93 | 111 | 10.0 | 16.0 | 0.00 | 0.14 | 0.14 | 53 | 1009.4 |
| 20260905224003 | 93 | 125 | 12.0 | 16.0 | 0.00 | 0.14 | 0.14 | 52 | 1009.4 |
| 20260905223504 | 93 | 121 | 8.0 | 14.0 | 0.00 | 0.14 | 0.14 | 52 | 1009.4 |
| 20260905222004 | 94 | 146 | 7.0 | 13.0 | 0.00 | 0.14 | 0.14 | 50 | 1009.3 |
| 20260905221504 | 94 | 139 | 9.0 | 14.0 | 0.00 | 0.14 | 0.14 | 51 | 1009.2 |
| 20260905221004 | 94 | 136 | 10.0 | 14.0 | 0.00 | 0.14 | 0.14 | 51 | 1009.1 |
| 20260905220504 | 94 | 167 | 7.0 | 12.0 | 0.00 | 0.14 | 0.14 | 53 | 1009.1 |
| 20260905215504 | 94 | 184 | 9.0 | 12.0 | 0.00 | 0.14 | 0.14 | 51 | 1009.1 |
| 20260905214504 | 94 | 200 | 11.0 | 16.0 | 0.00 | 0.14 | 0.14 | 51 | 1009.1 |
| 20260905214005 | 94 | 198 | 12.0 | 16.0 | 0.00 | 0.14 | 0.14 | 51 | 1009.0 |
| 20260905213504 | 94 | 200 | 10.0 | 17.0 | 0.00 | 0.14 | 0.14 | 50 | 1009.1 |
| 20260905213004 | 94 | 160 | 12.0 | 17.0 | 0.00 | 0.14 | 0.14 | 48 | 1009.0 |
| 20260905212503 | 94 | 186 | 10.0 | 17.0 | 0.00 | 0.14 | 0.14 | 50 | 1009.1 |
| 20260905212004 | 94 | 208 | 9.0 | 16.0 | 0.00 | 0.14 | 0.14 | 48 | 1009.1 |
| 20260905210504 | 94 | 192 | 12.0 | 20.0 | 0.00 | 0.14 | 0.14 | 46 | 1009.1 |
| 20260905210004 | 94 | 220 | 12.0 | 20.0 | 0.00 | 0.14 | 0.14 | 48 | 1009.1 |
| 20260905205504 | 94 | 214 | 13.0 | 20.0 | 0.00 | 0.14 | 0.14 | 46 | 1009.1 |
| 20260905205006 | 94 | 183 | 13.0 | 17.0 | 0.00 | 0.14 | 0.14 | 46 | 1009.1 |
| 20260905204504 | 94 | 221 | 11.0 | 15.0 | 0.00 | 0.14 | 0.14 | 48 | 1009.1 |
| 20260905204004 | 93 | 180 | 7.0 | 12.0 | 0.00 | 0.14 | 0.14 | 49 | 1009.0 |
| 20260905203504 | 93 | 172 | 6.0 | 12.0 | 0.00 | 0.14 | 0.14 | 48 | 1008.9 |
| 20260905203004 | 93 | 128 | 5.0 | 12.0 | 0.00 | 0.14 | 0.14 | 47 | 1008.8 |
| 20260905202004 | 92 | 138 | 5.0 | 13.0 | 0.00 | 0.14 | 0.14 | 49 | 1009.0 |
| 20260905200504 | 92 | 105 | 4.0 | 12.0 | 0.00 | 0.14 | 0.14 | 51 | 1008.9 |
| 20260905200005 | 92 | 101 | 8.0 | 12.0 | 0.00 | 0.14 | 0.14 | 52 | 1008.9 |
| 20260905195504 | 92 | 107 | 3.0 | 12.0 | 0.00 | 0.14 | 0.14 | 53 | 1009.0 |
| 20260905194503 | 91 | 153 | 4.0 | 12.0 | 0.00 | 0.14 | 0.14 | 55 | 1009.0 |
| 20260905194005 | 91 | 165 | 6.0 | 12.0 | 0.00 | 0.14 | 0.14 | 56 | 1009.0 |
| 20260905193503 | 91 | 179 | 7.0 | 13.0 | 0.00 | 0.14 | 0.14 | 54 | 1009.1 |
| 20260905193004 | 91 | 197 | 5.0 | 13.0 | 0.00 | 0.14 | 0.14 | 53 | 1009.1 |
| 20260905192503 | 91 | 157 | 7.0 | 13.0 | 0.00 | 0.14 | 0.14 | 54 | 1009.1 |